EXPRESS-AM11 1 28234U 04015A 21067.33919924 -.00000244 00000-0 00000+0 0 9995 2 28234 10.5762 35.8566 0009408 298.2187 259.8863 0.99236554 61239 SL-12 R/B(2) 1 28240U 04015D 21067.28867691 -.00000106 00000-0 00000+0 0 9996 2 28240 11.6617 27.7900 0018826 297.9445 98.7930 1.00705211 62056